Regional Weather Roundup
Issued by NWS San Angelo, TX

Home | Current Version | Previous Version | Text Only | Print | Product List | Glossary On
Versions: 1 2 3 4 5 6 7 8 9 10 11 12 13 14 15 16 17 18 19 20 21 22 23 24 25 26 27 28 29 30 31 32 33 34 35 36 37 38 39 40 41 42 43 44 45 46 47 48 49 50
000
ASUS44 KSJT 010358
RWRSJT
WEST CENTRAL TEXAS REGIONAL WEATHER ROUNDUP
NATIONAL WEATHER SERVICE SAN ANGELO TX
1100 PM CDT FRI JUL 31 2015

NOTE: "FAIR" INDICATES FEW OR NO CLOUDS BELOW 12,000 FEET WITH NO
SIGNIFICANT WEATHER AND/OR OBSTRUCTIONS TO VISIBILITY.

TXZ049-054-064>066-071>073-076>078-098-099-113-114-127-128-139-140-
154-155-168>170-010500
...LOCATIONS ACROSS WEST CENTRAL TEXAS...

CITY           SKY/WX    TMP DP  RH WIND       PRES   REMARKS
SAN ANGELO     CLOUDY    88  61  40 SE6       30.06R
ABILENE        CLEAR     79  68  69 SE12      30.10R
DYESS AFB      NOT AVBL
JUNCTION       MOCLDY    80  69  69 E10       30.10R
SWEETWATER     NOT AVBL
BROWNWOOD      NOT AVBL
COLEMAN        NOT AVBL
SONORA         NOT AVBL
OZONA          NOT AVBL
BRADY          NOT AVBL
$$

TEXAS PANHANDLE/OKLAHOMA PANHANDLE

CITY           SKY/WX    TMP DP  RH WIND       PRES   REMARKS
AMARILLO       CLOUDY    75  67  76 S12       30.24R
BORGER         CLOUDY    75  68  78 SE7       30.19R
CANADIAN       NOT AVBL
DALHART        CLOUDY    71  62  73 S8        30.24R
DUMAS          NOT AVBL
GUYMON         NOT AVBL
HEREFORD       NOT AVBL
PAMPA          NOT AVBL
PERRYTON       NOT AVBL
$$

SOUTHERN PANHANDLE/SOUTH PLAINS/ROLLING PLAINS

CITY           SKY/WX    TMP DP  RH WIND       PRES   REMARKS
LUBBOCK        MOCLDY    74  68  81 E17       30.18R
SNYDER         NOT AVBL
CHILDRESS      MOCLDY    75  68  78 SE9       30.12S
SEMINOLE       NOT AVBL
$$

PERMIAN BASIN

CITY           SKY/WX    TMP DP  RH WIND       PRES   REMARKS
MIDLAND        LGT RAIN  82  63  52 SW15G22   30.12R
ODESSA         PTCLDY    86  54  33 E17G25    30.11R
WINK           PTCLDY    90  53  28 E6        30.06R
$$

FAR WEST/SOUTHWEST MOUNTAINS/TRANS PECOS

CITY           SKY/WX    TMP DP  RH WIND       PRES   REMARKS
ALPINE         NOT AVBL
DRYDEN           N/A     88  65  46 SE13      30.05R
EL PASO        PTCLDY    86  55  34 E9        30.11R
FORT STOCKTON  PTCLDY    85  61  44 SE22G31   30.10R
GUADALUPE PASS CLEAR     75  48  38 NE15      30.28R
MARFA          NOT AVBL
PECOS          NOT AVBL
$$

DALLAS/FORT WORTH METROPLEX

CITY           SKY/WX    TMP DP  RH WIND       PRES   REMARKS
DFW AIRPORT    CLOUDY    89  55  31 E10       30.02S
FTW MEACHAM    CLOUDY    83  69  62 NE5       30.01F
DAL-EXECUTIVE  CLOUDY    87  57  35 E8        30.03S
GRAND PRAIRIE  NOT AVBL
ADDISON        NOT AVBL
MESQUITE       NOT AVBL
LANCASTER      NOT AVBL
$$

NORTH CENTRAL TEXAS

CITY           SKY/WX    TMP DP  RH WIND       PRES   REMARKS
SHRMAN/DENISON NOT AVBL
GAINESVILLE    NOT AVBL
BRIDGEPORT     NOT AVBL
DENTON         CLOUDY    81  71  71 NE3       30.02F
WAXAHACHIE     NOT AVBL
GRANBURY       NOT AVBL
$$

WESTERN NORTH TEXAS

CITY           SKY/WX    TMP DP  RH WIND       PRES   REMARKS
WICHITA FALLS  CLOUDY    74  70  87 S5        30.05S
VERNON         NOT AVBL
BRECKENRIDGE   NOT AVBL
COMANCHE       NOT AVBL
$$

CENTRAL AND SOUTH CENTRAL TEXAS

CITY           SKY/WX    TMP DP  RH WIND       PRES   REMARKS
AUSTIN/BERGSTM PTCLDY    87  71  58 NE7       30.00R
WACO           PTCLDY    84  66  54 E6        30.01F
HILLSBORO      NOT AVBL
TEMPLE         NOT AVBL
KILLEEN-GRAY   NOT AVBL
FORT HOOD      NOT AVBL
GEORGETOWN     NOT AVBL
LAGO VISTA     NOT AVBL
SAN MARCOS     NOT AVBL
NEW BRAUNFELS  CLEAR     81  73  76 SW6       30.00R
RANDOLPH AFB   NOT AVBL
SAN ANTONIO    MOCLDY    84  70  62 W5        30.03R
STINSON        PTCLDY    81  73  76 CALM      30.00R
PLEASANTON     NOT AVBL
LA GRANGE      NOT AVBL
GIDDINGS       NOT AVBL
$$

EAST TEXAS

CITY           SKY/WX    TMP DP  RH WIND       PRES   REMARKS
PARIS          NOT AVBL
CLARKSVILLE    NOT AVBL
TYLER          MOCLDY    84  60  44 NE5       30.05R
LONGVIEW       PTCLDY    80  64  58 NE3       30.03R
PALESTINE      NOT AVBL
NACOGDOCHES    NOT AVBL
$$

TEXAS HILL COUNTRY AND EDWARDS PLATEAU

CITY           SKY/WX    TMP DP  RH WIND       PRES   REMARKS
LLANO          NOT AVBL
HORSESHOE BAY  NOT AVBL
KERRVILLE      NOT AVBL
FREDERICKSBRG  NOT AVBL
ROCKSPRINGS    NOT AVBL
HONDO          PTCLDY    77  71  82 S3        30.05R
UVALDE         NOT AVBL
DEL RIO        CLEAR     85  68  56 SE8       30.00R
$$

SOUTHEAST TEXAS

CITY           SKY/WX    TMP DP  RH WIND       PRES   REMARKS
COLLEGE STN    CLEAR     85  61  44 NE6       30.01R
CALDWELL       NOT AVBL
CROCKETT       NOT AVBL
BRENHAM        NOT AVBL
HUNTSVILLE     CLEAR     82  63  52 CALM      30.01R
CONROE         CLEAR     75  67  76 CALM      30.00S
HOUSTON BUSH   PTCLDY    81  67  62 NE3       29.98S
HOUSTON HOBBY  PTCLDY    83  67  58 CALM      29.97S
PERLAND        CLEAR     84  73  69 CALM      29.99S
WHARTON        NOT AVBL
$$

THE UPPER TEXAS COAST

CITY           SKY/WX    TMP DP  RH WIND       PRES   REMARKS
ORANGE         NOT AVBL
PORT ARTHUR    CLEAR     82  67  60 N7        29.97S
GALVESTON      CLEAR     86  77  74 CALM      29.99S
ANGLETON       CLEAR     80  77  90 CALM      29.98S
BAY CITY       NOT AVBL
$$

TEXAS COASTAL BEND, RIO GRANDE PLAINS DEEP SOUTH TEXAS

CITY           SKY/WX    TMP DP  RH WIND       PRES   REMARKS
VICTORIA       CLOUDY    77  75  93 W5        29.98S
BEEVILLE       NOT AVBL
ROCKPORT       CLOUDY    78  74  87 NW6       29.97R
PORT ARANSAS   NOT AVBL
PORT LAVACA    MOCLDY    75  73  94 CALM      29.98R
CORPUS CHRISTI CLOUDY    78  74  87 CALM      29.97R
KINGSVILLE NAS NOT AVBL
COTULLA        CLOUDY    78  72  81 S5        29.99F
LAREDO         NOT AVBL
BROWNSVILLE    CLOUDY    81  74  79 SE6       29.97R
PORT ISABEL    NOT AVBL
HEBBRONVILLE   NOT AVBL
MCALLEN        CLOUDY    85  72  65 SE6       29.97R
WESLACO        NOT AVBL
FALFURRIAS     NOT AVBL
EDINBURG       NOT AVBL
$$



USA.gov is the U.S. government's official web portal to all federal, state and local government web resources and services.